Time,TemperatureF,DewpointF,PressureIn,WindDirection,WindDirectionDegrees,WindSpeedMPH,WindSpeedGustMPH,Humidity,HourlyPrecipIn,Conditions,Clouds,dailyrainin,SoftwareType,DateUTC
2013-11-11 00:00:00,63.9,51.9,25.07,ENE,63,3.1,4.0,65,0.00,,---,0.00,VWS V14.01,2013-11-11 06:00:00,
2013-11-11 00:05:00,63.9,52.3,25.07,SSE,159,3.6,4.9,66,0.00,,---,0.00,VWS V14.01,2013-11-11 06:05:00,
2013-11-11 00:10:00,63.9,52.3,25.07,ENE,76,4.9,5.8,66,0.00,,---,0.00,VWS V14.01,2013-11-11 06:10:00,
2013-11-11 00:15:00,63.7,52.1,25.07,SE,142,6.3,12.3,66,0.00,,---,0.00,VWS V14.01,2013-11-11 06:15:00,
2013-11-11 00:20:00,63.7,52.1,25.07,SSE,159,2.2,4.9,66,0.00,,---,0.00,VWS V14.01,2013-11-11 06:20:00,
2013-11-11 00:25:00,63.7,52.1,25.07,East,83,5.4,8.1,66,0.00,,---,0.00,VWS V14.01,2013-11-11 06:25:00,
2013-11-11 00:30:00,63.7,52.1,25.07,South,176,4.0,4.0,66,0.00,,---,0.00,VWS V14.01,2013-11-11 06:30:00,
2013-11-11 00:35:00,63.7,52.1,25.07,WSW,239,3.1,3.1,66,0.00,,---,0.00,VWS V14.01,2013-11-11 06:35:00,
2013-11-11 00:40:00,63.5,52.0,25.07,SSE,151,2.7,3.6,66,0.00,,---,0.00,VWS V14.01,2013-11-11 06:40:00,
2013-11-11 00:46:00,63.5,52.0,25.07,East,83,8.3,8.3,66,0.00,,---,0.00,VWS V14.01,2013-11-11 06:46:00,
2013-11-11 00:51:00,63.5,51.5,25.07,SSW,208,3.1,13.2,65,0.00,,---,0.00,VWS V14.01,2013-11-11 06:51:00,
2013-11-11 00:56:00,63.7,51.3,25.07,South,174,0.0,0.0,64,0.00,,---,0.00,VWS V14.01,2013-11-11 06:56:00,
2013-11-11 01:01:00,63.5,50.7,25.07,ESE,114,2.7,3.1,63,0.00,,---,0.00,VWS V14.01,2013-11-11 07:01:00,
2013-11-11 01:06:00,63.5,50.7,25.07,SE,142,4.0,4.0,63,0.00,,---,0.00,VWS V14.01,2013-11-11 07:06:00,
2013-11-11 01:11:00,63.7,50.9,25.07,South,179,5.4,5.4,63,0.00,,---,0.00,VWS V14.01,2013-11-11 07:11:00,
2013-11-11 01:16:00,63.9,50.2,25.07,South,173,3.1,3.1,61,0.00,,---,0.00,VWS V14.01,2013-11-11 07:16:00,
2013-11-11 01:21:00,63.9,50.2,25.07,NE,37,2.2,4.0,61,0.00,,---,0.00,VWS V14.01,2013-11-11 07:21:00,
2013-11-11 01:27:00,63.9,50.2,25.07,SSE,157,2.7,4.9,61,0.00,,---,0.00,VWS V14.01,2013-11-11 07:27:00,
2013-11-11 01:32:00,63.7,50.2,25.04,East,88,6.3,6.3,61,0.00,,---,0.00,VWS V14.01,2013-11-11 07:32:00,
2013-11-11 01:37:00,63.5,50.7,25.04,SE,132,3.1,4.9,63,0.00,,---,0.00,VWS V14.01,2013-11-11 07:37:00,
2013-11-11 01:42:00,63.5,50.7,25.04,ESE,117,3.1,3.1,63,0.00,,---,0.00,VWS V14.01,2013-11-11 07:42:00,
2013-11-11 01:47:00,63.5,50.7,25.04,East,92,5.4,5.4,63,0.00,,---,0.00,VWS V14.01,2013-11-11 07:47:00,
2013-11-11 01:52:00,63.3,51.4,25.04,ESE,112,5.8,5.8,65,0.00,,---,0.00,VWS V14.01,2013-11-11 07:52:00,
2013-11-11 01:57:00,63.3,51.4,25.04,NE,37,4.0,5.8,65,0.00,,---,0.00,VWS V14.01,2013-11-11 07:57:00,
2013-11-11 02:02:00,63.0,52.2,25.04,East,79,6.3,6.3,68,0.00,,---,0.00,VWS V14.01,2013-11-11 08:02:00,
2013-11-11 02:07:00,63.0,52.6,25.04,SE,134,4.0,5.8,69,0.00,,---,0.00,VWS V14.01,2013-11-11 08:07:00,
2013-11-11 02:13:00,62.8,52.9,25.04,East,87,5.8,8.1,70,0.00,,---,0.00,VWS V14.01,2013-11-11 08:13:00,
2013-11-11 02:18:00,62.8,52.9,25.04,SSE,151,4.9,8.1,70,0.00,,---,0.00,VWS V14.01,2013-11-11 08:18:00,
2013-11-11 02:23:00,62.4,53.7,25.04,ENE,61,2.7,5.8,73,0.00,,---,0.00,VWS V14.01,2013-11-11 08:23:00,
2013-11-11 02:28:00,62.4,55.1,25.04,SSE,159,4.9,4.9,77,0.00,,---,0.00,VWS V14.01,2013-11-11 08:28:00,
2013-11-11 02:33:00,62.4,55.1,25.04,ENE,69,5.4,7.6,77,0.00,,---,0.00,VWS V14.01,2013-11-11 08:33:00,
2013-11-11 02:38:00,62.4,55.5,25.04,East,100,3.1,3.6,78,0.00,,---,0.00,VWS V14.01,2013-11-11 08:38:00,
2013-11-11 02:43:00,62.4,55.5,25.04,SSE,161,2.2,7.6,78,0.00,,---,0.00,VWS V14.01,2013-11-11 08:43:00,
2013-11-11 02:48:00,62.2,55.7,25.04,East,88,7.2,7.2,79,0.00,,---,0.00,VWS V14.01,2013-11-11 08:48:00,
2013-11-11 02:53:00,62.2,55.7,25.04,ESE,104,3.1,4.0,79,0.00,,---,0.00,VWS V14.01,2013-11-11 08:53:00,
2013-11-11 02:58:00,62.2,55.7,25.04,ESE,114,4.0,4.0,79,0.00,,---,0.00,VWS V14.01,2013-11-11 08:58:00,
2013-11-11 03:03:00,62.1,55.1,25.04,NE,40,0.0,0.0,78,0.00,,---,0.00,VWS V14.01,2013-11-11 09:03:00,
2013-11-11 03:08:00,61.9,55.0,25.04,NE,40,2.7,2.7,78,0.00,,---,0.00,VWS V14.01,2013-11-11 09:08:00,
2013-11-11 03:13:00,61.9,53.1,25.04,SSW,210,4.9,4.9,73,0.00,,---,0.00,VWS V14.01,2013-11-11 09:13:00,
2013-11-11 03:18:00,62.2,52.7,25.04,West,260,2.7,3.6,71,0.00,,---,0.00,VWS V14.01,2013-11-11 09:18:00,
2013-11-11 03:23:00,62.8,52.1,25.04,NE,45,2.2,3.6,68,0.00,,---,0.00,VWS V14.01,2013-11-11 09:23:00,
2013-11-11 03:28:00,63.0,51.8,25.04,SSE,149,2.7,3.1,67,0.00,,---,0.00,VWS V14.01,2013-11-11 09:28:00,
2013-11-11 03:33:00,63.0,51.4,25.04,SE,125,4.0,4.0,66,0.00,,---,0.00,VWS V14.01,2013-11-11 09:33:00,
2013-11-11 03:39:00,63.0,52.6,25.04,East,92,3.1,4.9,69,0.00,,---,0.00,VWS V14.01,2013-11-11 09:39:00,
2013-11-11 03:45:00,62.6,52.3,25.04,SE,126,0.0,0.0,69,0.00,,---,0.00,VWS V14.01,2013-11-11 09:45:00,
2013-11-11 03:50:00,61.9,53.1,25.04,ESE,112,5.8,5.8,73,0.00,,---,0.00,VWS V14.01,2013-11-11 09:50:00,
2013-11-11 03:55:00,61.5,54.6,25.04,ESE,116,3.1,4.0,78,0.00,,---,0.00,VWS V14.01,2013-11-11 09:55:00,
2013-11-11 04:00:00,61.3,55.5,25.04,SSE,147,3.1,3.1,81,0.00,,---,0.00,VWS V14.01,2013-11-11 10:00:00,
2013-11-11 04:05:00,61.3,55.8,25.04,SE,139,4.9,4.9,82,0.00,,---,0.00,VWS V14.01,2013-11-11 10:05:00,
2013-11-11 04:10:00,61.5,56.3,25.04,NE,46,6.3,6.3,83,0.00,,---,0.00,VWS V14.01,2013-11-11 10:10:00,
2013-11-11 04:16:00,61.5,56.7,25.04,SE,142,4.0,4.0,84,0.00,,---,0.00,VWS V14.01,2013-11-11 10:16:00,
2013-11-11 04:21:00,61.7,56.5,25.04,SE,145,3.1,5.8,83,0.00,,---,0.00,VWS V14.01,2013-11-11 10:21:00,
2013-11-11 04:26:00,61.7,56.5,25.04,SE,124,0.0,0.0,83,0.00,,---,0.00,VWS V14.01,2013-11-11 10:26:00,
2013-11-11 04:31:00,61.7,56.2,25.07,SE,124,2.7,2.7,82,0.00,,---,0.00,VWS V14.01,2013-11-11 10:31:00,
2013-11-11 04:36:00,61.9,56.0,25.07,East,87,5.8,5.8,81,0.00,,---,0.00,VWS V14.01,2013-11-11 10:36:00,
2013-11-11 04:41:00,61.9,56.0,25.07,NE,39,5.4,5.4,81,0.00,,---,0.00,VWS V14.01,2013-11-11 10:41:00,
2013-11-11 04:46:00,62.2,56.3,25.07,North,6,5.4,5.4,81,0.00,,---,0.00,VWS V14.01,2013-11-11 10:46:00,
2013-11-11 04:51:00,62.2,56.0,25.07,ENE,66,3.6,3.6,80,0.00,,---,0.00,VWS V14.01,2013-11-11 10:51:00,
2013-11-11 04:56:00,62.4,56.2,25.07,ESE,114,4.0,6.3,80,0.00,,---,0.00,VWS V14.01,2013-11-11 10:56:00,
2013-11-11 05:01:00,62.4,55.5,25.07,ESE,114,4.9,4.9,78,0.00,,---,0.00,VWS V14.01,2013-11-11 11:01:00,
2013-11-11 05:06:00,62.4,55.5,25.07,ENE,73,3.6,3.6,78,0.00,,---,0.00,VWS V14.01,2013-11-11 11:06:00,
2013-11-11 05:12:00,62.8,54.4,25.07,ESE,102,4.0,5.4,74,0.00,,---,0.00,VWS V14.01,2013-11-11 11:12:00,
2013-11-11 05:17:00,63.0,54.2,25.07,NE,41,5.8,5.8,73,0.00,,---,0.00,VWS V14.01,2013-11-11 11:17:00,
2013-11-11 05:22:00,63.1,54.0,25.04,East,85,3.1,5.4,72,0.00,,---,0.00,VWS V14.01,2013-11-11 11:22:00,
2013-11-11 05:27:00,63.1,54.0,25.04,East,96,3.6,3.6,72,0.00,,---,0.00,VWS V14.01,2013-11-11 11:27:00,
2013-11-11 05:32:00,63.1,54.0,25.04,ESE,104,4.0,4.0,72,0.00,,---,0.00,VWS V14.01,2013-11-11 11:32:00,
2013-11-11 05:37:00,63.1,54.3,25.07,East,85,4.0,4.0,73,0.00,,---,0.00,VWS V14.01,2013-11-11 11:37:00,
2013-11-11 05:42:00,62.8,55.1,25.07,East,90,3.1,4.0,76,0.00,,---,0.00,VWS V14.01,2013-11-11 11:42:00,
2013-11-11 05:47:00,62.4,55.5,25.07,East,89,4.0,4.0,78,0.00,,---,0.00,VWS V14.01,2013-11-11 11:47:00,
2013-11-11 05:52:00,62.2,56.3,25.07,ESE,116,3.6,5.4,81,0.00,,---,0.00,VWS V14.01,2013-11-11 11:52:00,
2013-11-11 05:57:00,62.1,56.5,25.07,NE,52,8.3,8.3,82,0.00,,---,0.00,VWS V14.01,2013-11-11 11:57:00,
2013-11-11 06:02:00,62.1,57.2,25.07,SE,129,5.8,5.8,84,0.00,,---,0.00,VWS V14.01,2013-11-11 12:02:00,
2013-11-11 06:07:00,62.2,57.0,25.07,SSE,158,5.8,8.1,83,0.00,,---,0.00,VWS V14.01,2013-11-11 12:07:00,
2013-11-11 06:12:00,62.6,56.7,25.07,ESE,117,8.7,8.7,81,0.00,,---,0.00,VWS V14.01,2013-11-11 12:12:00,
2013-11-11 06:18:00,63.0,56.0,25.07,ENE,57,4.5,5.8,78,0.00,,---,0.00,VWS V14.01,2013-11-11 12:18:00,
2013-11-11 06:23:00,63.3,54.9,25.07,SE,126,7.6,7.6,74,0.00,,---,0.00,VWS V14.01,2013-11-11 12:23:00,
2013-11-11 06:28:00,63.5,54.7,25.07,ESE,123,8.1,8.1,73,0.00,,---,0.00,VWS V14.01,2013-11-11 12:28:00,
2013-11-11 06:33:00,63.7,54.9,25.07,ESE,113,5.8,5.8,73,0.00,,---,0.00,VWS V14.01,2013-11-11 12:33:00,
2013-11-11 06:38:00,63.7,54.5,25.10,ESE,122,7.6,7.6,72,0.00,,---,0.00,VWS V14.01,2013-11-11 12:38:00,
2013-11-11 06:43:00,64.0,54.1,25.10,East,98,3.6,3.6,70,0.00,,---,0.00,VWS V14.01,2013-11-11 12:43:00,
2013-11-11 06:48:00,64.2,54.2,25.10,ENE,65,2.2,2.7,70,0.00,,---,0.00,VWS V14.01,2013-11-11 12:48:00,
2013-11-11 06:53:00,64.4,54.0,25.10,ESE,118,3.1,3.1,69,0.00,,---,0.00,VWS V14.01,2013-11-11 12:53:00,
2013-11-11 06:58:00,64.4,54.4,25.10,SE,133,3.1,3.1,70,0.00,,---,0.00,VWS V14.01,2013-11-11 12:58:00,
2013-11-11 07:03:00,64.4,54.0,25.10,East,101,5.4,5.8,69,0.00,,---,0.00,VWS V14.01,2013-11-11 13:03:00,
2013-11-11 07:09:00,64.4,54.4,25.10,ESE,103,5.8,5.8,70,0.00,,---,0.00,VWS V14.01,2013-11-11 13:09:00,
2013-11-11 07:14:00,64.4,54.4,25.10,ENE,74,5.8,5.8,70,0.00,,---,0.00,VWS V14.01,2013-11-11 13:14:00,
2013-11-11 07:19:00,64.2,54.6,25.10,East,89,5.4,6.3,71,0.00,,---,0.00,VWS V14.01,2013-11-11 13:19:00,
2013-11-11 07:24:00,64.2,55.4,25.10,East,86,2.7,2.7,73,0.00,,---,0.00,VWS V14.01,2013-11-11 13:24:00,
2013-11-11 07:29:00,64.4,55.6,25.10,ENE,70,2.7,4.0,73,0.00,,---,0.00,VWS V14.01,2013-11-11 13:29:00,
2013-11-11 07:34:00,64.4,55.2,25.10,SE,133,8.1,8.1,72,0.00,,---,0.00,VWS V14.01,2013-11-11 13:34:00,
2013-11-11 07:39:00,64.8,54.4,25.10,ESE,119,6.3,6.3,69,0.00,,---,0.00,VWS V14.01,2013-11-11 13:39:00,
2013-11-11 07:44:00,64.9,54.1,25.10,East,92,5.4,5.4,68,0.00,,---,0.00,VWS V14.01,2013-11-11 13:44:00,
2013-11-11 07:49:00,65.1,54.3,25.10,ESE,113,5.8,8.3,68,0.00,,---,0.00,VWS V14.01,2013-11-11 13:49:00,
2013-11-11 07:54:00,65.5,53.8,25.13,East,101,4.0,4.0,66,0.00,,---,0.00,VWS V14.01,2013-11-11 13:54:00,
2013-11-11 07:59:00,65.5,53.4,25.13,South,180,3.1,3.1,65,0.00,,---,0.00,VWS V14.01,2013-11-11 13:59:00,
2013-11-11 08:04:00,65.7,54.0,25.13,North,11,2.7,2.7,66,0.00,,---,0.00,VWS V14.01,2013-11-11 14:04:00,
2013-11-11 08:09:00,65.5,53.8,25.13,ESE,113,5.4,5.4,66,0.00,,---,0.00,VWS V14.01,2013-11-11 14:09:00,
2013-11-11 08:14:00,65.3,54.5,25.13,NE,35,5.4,5.4,68,0.00,,---,0.00,VWS V14.01,2013-11-11 14:14:00,
2013-11-11 08:20:00,65.1,53.9,25.13,East,83,2.2,8.1,67,0.00,,---,0.00,VWS V14.01,2013-11-11 14:20:00,
2013-11-11 08:25:00,65.1,54.3,25.13,NE,47,2.7,3.6,68,0.00,,---,0.00,VWS V14.01,2013-11-11 14:25:00,
2013-11-11 08:30:00,65.1,53.9,25.13,ESE,103,4.0,4.0,67,0.00,,---,0.00,VWS V14.01,2013-11-11 14:30:00,
2013-11-11 08:35:00,65.1,53.9,25.13,East,92,4.0,4.0,67,0.00,,---,0.00,VWS V14.01,2013-11-11 14:35:00,
2013-11-11 08:40:00,65.3,54.1,25.13,East,82,4.0,4.0,67,0.00,,---,0.00,VWS V14.01,2013-11-11 14:40:00,
2013-11-11 08:45:00,65.3,54.5,25.13,ENE,76,5.8,5.8,68,0.00,,---,0.00,VWS V14.01,2013-11-11 14:45:00,
2013-11-11 08:50:00,65.3,54.5,25.13,East,84,5.8,5.8,68,0.00,,---,0.00,VWS V14.01,2013-11-11 14:50:00,
2013-11-11 08:55:00,65.3,54.5,25.13,ESE,110,4.0,4.0,68,0.00,,---,0.00,VWS V14.01,2013-11-11 14:55:00,
2013-11-11 09:01:00,65.5,55.5,25.13,ENE,68,2.2,3.1,70,0.00,,---,0.00,VWS V14.01,2013-11-11 15:01:00,
2013-11-11 09:06:00,65.7,56.0,25.13,NE,45,8.3,8.3,71,0.00,,---,0.00,VWS V14.01,2013-11-11 15:06:00,
2013-11-11 09:11:00,66.0,54.8,25.13,ESE,111,5.8,5.8,67,0.00,,---,0.00,VWS V14.01,2013-11-11 15:11:00,
2013-11-11 09:16:00,66.2,53.2,25.13,SSE,163,8.7,8.7,63,0.00,,---,0.00,VWS V14.01,2013-11-11 15:16:00,
2013-11-11 09:21:00,66.2,53.2,25.13,NE,45,5.4,5.4,63,0.00,,---,0.00,VWS V14.01,2013-11-11 15:21:00,
2013-11-11 09:26:00,66.2,53.2,25.13,NNE,30,5.4,8.7,63,0.00,,---,0.00,VWS V14.01,2013-11-11 15:26:00,
2013-11-11 09:31:00,66.7,53.3,25.13,SE,129,4.0,4.0,62,0.00,,---,0.00,VWS V14.01,2013-11-11 15:31:00,
2013-11-11 09:36:00,66.7,53.8,25.13,ENE,73,3.1,3.1,63,0.00,,---,0.00,VWS V14.01,2013-11-11 15:36:00,
2013-11-11 09:41:00,66.7,53.8,25.13,SSW,194,2.7,4.0,63,0.00,,---,0.00,VWS V14.01,2013-11-11 15:41:00,
2013-11-11 09:46:00,66.7,53.8,25.13,SSE,149,2.7,5.8,63,0.00,,---,0.00,VWS V14.01,2013-11-11 15:46:00,
2013-11-11 09:51:00,67.6,53.3,25.13,ESE,103,4.0,4.0,60,0.00,,---,0.00,VWS V14.01,2013-11-11 15:51:00,
2013-11-11 09:56:00,68.0,52.7,25.13,SE,132,3.6,3.6,58,0.00,,---,0.00,VWS V14.01,2013-11-11 15:56:00,
2013-11-11 10:02:00,68.4,52.5,25.13,SE,131,2.7,2.7,57,0.00,,---,0.00,VWS V14.01,2013-11-11 16:02:00,
2013-11-11 10:07:00,68.4,52.5,25.13,NE,51,3.6,4.0,57,0.00,,---,0.00,VWS V14.01,2013-11-11 16:07:00,
2013-11-11 10:12:00,68.4,52.5,25.13,NNE,14,2.7,3.6,57,0.00,,---,0.00,VWS V14.01,2013-11-11 16:12:00,
2013-11-11 10:17:00,69.6,51.8,25.13,NNE,14,2.2,2.2,53,0.00,,---,0.00,VWS V14.01,2013-11-11 16:17:00,
2013-11-11 10:22:00,70.2,50.7,25.10,South,179,3.6,3.6,50,0.00,,---,0.00,VWS V14.01,2013-11-11 16:22:00,
2013-11-11 10:27:00,70.2,50.7,25.10,NNE,26,3.1,3.1,50,0.00,,---,0.00,VWS V14.01,2013-11-11 16:27:00,
2013-11-11 10:32:00,70.2,50.7,25.10,NE,47,2.7,2.7,50,0.00,,---,0.00,VWS V14.01,2013-11-11 16:32:00,
2013-11-11 10:37:00,70.2,50.7,25.10,East,90,2.2,2.2,50,0.00,,---,0.00,VWS V14.01,2013-11-11 16:37:00,
2013-11-11 10:42:00,71.2,52.7,25.10,North,6,4.0,4.0,52,0.00,,---,0.00,VWS V14.01,2013-11-11 16:42:00,
2013-11-11 10:47:00,71.2,52.7,25.10,East,100,4.5,4.5,52,0.00,,---,0.00,VWS V14.01,2013-11-11 16:47:00,
2013-11-11 10:53:00,69.3,52.9,25.10,ENE,78,2.7,5.4,56,0.00,,---,0.00,VWS V14.01,2013-11-11 16:53:00,
2013-11-11 10:58:00,68.7,53.4,25.10,East,89,3.6,3.6,58,0.00,,---,0.00,VWS V14.01,2013-11-11 16:58:00,
2013-11-11 11:03:00,67.3,55.1,25.10,NE,38,3.1,3.1,65,0.00,,---,0.00,VWS V14.01,2013-11-11 17:03:00,
2013-11-11 11:08:00,66.9,56.4,25.10,NNE,30,2.2,2.2,69,0.00,,---,0.00,VWS V14.01,2013-11-11 17:08:00,
2013-11-11 11:13:00,67.1,57.0,25.10,NE,38,3.6,3.6,70,0.00,,---,0.00,VWS V14.01,2013-11-11 17:13:00,
2013-11-11 11:18:00,67.1,57.0,25.10,SE,124,2.2,3.6,70,0.00,,---,0.00,VWS V14.01,2013-11-11 17:18:00,
2013-11-11 11:23:00,67.3,56.8,25.10,ESE,114,3.6,5.4,69,0.00,,---,0.00,VWS V14.01,2013-11-11 17:23:00,
2013-11-11 11:28:00,67.5,57.0,25.10,ENE,58,5.4,5.4,69,0.00,,---,0.00,VWS V14.01,2013-11-11 17:28:00,
2013-11-11 11:33:00,67.5,57.0,25.10,East,99,6.3,6.3,69,0.00,,---,0.00,VWS V14.01,2013-11-11 17:33:00,
2013-11-11 11:38:00,67.5,57.0,25.10,NNE,31,3.6,3.6,69,0.00,,---,0.00,VWS V14.01,2013-11-11 17:38:00,
2013-11-11 11:43:00,69.1,58.1,25.07,ENE,75,2.7,2.7,68,0.00,,---,0.00,VWS V14.01,2013-11-11 17:43:00,
2013-11-11 11:48:00,69.3,55.2,25.07,East,85,4.0,4.0,61,0.00,,---,0.00,VWS V14.01,2013-11-11 17:48:00,
2013-11-11 11:54:00,69.3,55.2,25.07,East,89,4.0,4.0,61,0.00,,---,0.00,VWS V14.01,2013-11-11 17:54:00,
2013-11-11 11:59:00,68.4,54.8,25.07,East,96,3.6,3.6,62,0.00,,---,0.00,VWS V14.01,2013-11-11 17:59:00,
2013-11-11 12:04:00,68.4,54.8,25.07,NE,35,0.0,0.0,62,0.00,,---,0.00,VWS V14.01,2013-11-11 18:04:00,
2013-11-11 12:09:00,68.4,54.8,25.07,ESE,120,2.7,4.9,62,0.00,,---,0.00,VWS V14.01,2013-11-11 18:09:00,
2013-11-11 12:14:00,66.9,56.4,25.07,ESE,111,4.9,4.9,69,0.00,,---,0.00,VWS V14.01,2013-11-11 18:14:00,
2013-11-11 12:19:00,66.9,57.2,25.07,NE,44,2.7,2.7,71,0.00,,---,0.00,VWS V14.01,2013-11-11 18:19:00,
2013-11-11 12:24:00,66.9,57.2,25.07,NE,45,3.1,4.0,71,0.00,,---,0.00,VWS V14.01,2013-11-11 18:24:00,
2013-11-11 12:29:00,66.9,57.2,25.07,East,92,5.4,5.4,71,0.00,,---,0.00,VWS V14.01,2013-11-11 18:29:00,
2013-11-11 12:34:00,68.4,57.0,25.07,NE,53,2.2,2.2,67,0.00,,---,0.00,VWS V14.01,2013-11-11 18:34:00,
2013-11-11 12:39:00,68.7,57.7,25.07,ENE,61,2.7,2.7,68,0.00,,---,0.00,VWS V14.01,2013-11-11 18:39:00,
2013-11-11 12:45:00,69.3,57.4,25.07,ESE,110,4.0,5.4,66,0.00,,---,0.00,VWS V14.01,2013-11-11 18:45:00,
2013-11-11 12:50:00,69.3,57.4,25.07,NE,39,3.1,7.2,66,0.00,,---,0.00,VWS V14.01,2013-11-11 18:50:00,
2013-11-11 12:55:00,70.0,55.0,25.07,ENE,73,3.1,7.2,59,0.00,,---,0.00,VWS V14.01,2013-11-11 18:55:00,
2013-11-11 13:00:00,70.5,53.6,25.07,ENE,65,4.0,4.0,55,0.00,,---,0.00,VWS V14.01,2013-11-11 19:00:00,
2013-11-11 13:05:00,70.5,53.6,25.07,NE,49,4.0,4.0,55,0.00,,---,0.00,VWS V14.01,2013-11-11 19:05:00,
2013-11-11 13:10:00,70.5,53.6,25.04,NNE,26,3.1,3.1,55,0.00,,---,0.00,VWS V14.01,2013-11-11 19:10:00,
2013-11-11 13:15:00,70.5,53.6,25.04,SE,125,3.1,3.1,55,0.00,,---,0.00,VWS V14.01,2013-11-11 19:15:00,
2013-11-11 13:20:00,68.5,54.6,25.04,NE,44,2.7,2.7,61,0.00,,---,0.00,VWS V14.01,2013-11-11 19:20:00,
2013-11-11 13:26:00,68.0,55.0,25.04,East,86,4.0,4.0,63,0.00,,---,0.00,VWS V14.01,2013-11-11 19:26:00,
2013-11-11 13:31:00,67.5,55.3,25.04,East,85,4.0,4.0,65,0.00,,---,0.00,VWS V14.01,2013-11-11 19:31:00,
2013-11-11 13:36:00,67.5,56.5,25.04,East,85,0.0,0.0,68,0.00,,---,0.00,VWS V14.01,2013-11-11 19:36:00,
2013-11-11 13:41:00,67.5,56.5,25.04,ENE,71,2.2,2.2,68,0.00,,---,0.00,VWS V14.01,2013-11-11 19:41:00,
2013-11-11 13:46:00,69.3,56.6,25.04,ENE,63,3.1,3.1,64,0.00,,---,0.00,VWS V14.01,2013-11-11 19:46:00,
2013-11-11 13:51:00,69.4,56.8,25.04,ENE,74,4.9,4.9,64,0.00,,---,0.00,VWS V14.01,2013-11-11 19:51:00,
2013-11-11 13:56:00,69.6,55.1,25.04,NE,41,2.7,2.7,60,0.00,,---,0.00,VWS V14.01,2013-11-11 19:56:00,
2013-11-11 14:02:00,69.6,55.1,25.04,NNE,32,3.6,3.6,60,0.00,,---,0.00,VWS V14.01,2013-11-11 20:02:00,
2013-11-11 14:07:00,69.6,55.1,25.04,ENE,77,2.7,2.7,60,0.00,,---,0.00,VWS V14.01,2013-11-11 20:07:00,
2013-11-11 14:12:00,68.9,55.4,25.04,ENE,70,3.1,3.1,62,0.00,,---,0.00,VWS V14.01,2013-11-11 20:12:00,
2013-11-11 14:17:00,68.7,55.2,25.04,East,88,3.1,3.1,62,0.00,,---,0.00,VWS V14.01,2013-11-11 20:17:00,
2013-11-11 14:22:00,68.5,55.0,25.04,ENE,68,0.0,4.5,62,0.00,,---,0.00,VWS V14.01,2013-11-11 20:22:00,
2013-11-11 14:28:00,68.2,55.1,25.01,ENE,68,0.0,0.0,63,0.00,,---,0.00,VWS V14.01,2013-11-11 20:28:00,
2013-11-11 14:33:00,68.0,55.0,25.01,ENE,68,2.7,2.7,63,0.00,,---,0.00,VWS V14.01,2013-11-11 20:33:00,
2013-11-11 14:38:00,67.8,55.2,25.01,ENE,68,0.0,0.0,64,0.00,,---,0.00,VWS V14.01,2013-11-11 20:38:00,
2013-11-11 14:43:00,67.6,55.5,25.01,ENE,68,3.1,3.1,65,0.00,,---,0.00,VWS V14.01,2013-11-11 20:43:00,
2013-11-11 14:48:00,67.6,55.9,25.01,ENE,68,2.2,2.2,66,0.00,,---,0.00,VWS V14.01,2013-11-11 20:48:00,
2013-11-11 14:53:00,67.6,56.3,25.01,East,81,2.7,2.7,67,0.00,,---,0.00,VWS V14.01,2013-11-11 20:53:00,
2013-11-11 14:58:00,67.8,56.9,25.01,ENE,76,3.1,3.1,68,0.00,,---,0.00,VWS V14.01,2013-11-11 20:58:00,
2013-11-11 15:03:00,67.8,56.5,25.01,East,93,0.0,0.0,67,0.00,,---,0.00,VWS V14.01,2013-11-11 21:03:00,
2013-11-11 15:08:00,67.6,56.7,25.01,East,92,2.7,2.7,68,0.00,,---,0.00,VWS V14.01,2013-11-11 21:08:00,
2013-11-11 15:13:00,67.5,56.5,25.01,ESE,120,6.3,6.3,68,0.00,,---,0.00,VWS V14.01,2013-11-11 21:13:00,
2013-11-11 15:19:00,67.3,56.8,25.01,East,91,3.1,3.1,69,0.00,,---,0.00,VWS V14.01,2013-11-11 21:19:00,
2013-11-11 15:24:00,67.1,56.6,25.01,ENE,63,3.1,3.1,69,0.00,,---,0.00,VWS V14.01,2013-11-11 21:24:00,
2013-11-11 15:29:00,66.9,56.4,25.01,ENE,62,2.7,2.7,69,0.00,,---,0.00,VWS V14.01,2013-11-11 21:29:00,
2013-11-11 15:34:00,66.7,56.7,25.01,ESE,114,2.2,3.1,70,0.00,,---,0.00,VWS V14.01,2013-11-11 21:34:00,
2013-11-11 15:39:00,66.7,57.0,25.01,East,100,2.7,3.6,71,0.00,,---,0.00,VWS V14.01,2013-11-11 21:39:00,
2013-11-11 15:44:00,66.6,57.3,25.01,SE,146,3.1,3.1,72,0.00,,---,0.00,VWS V14.01,2013-11-11 21:44:00,
2013-11-11 15:49:00,66.4,57.1,25.01,SE,127,0.0,0.0,72,0.00,,---,0.00,VWS V14.01,2013-11-11 21:49:00,
2013-11-11 15:54:00,66.2,56.9,25.01,SE,126,0.0,0.0,72,0.00,,---,0.00,VWS V14.01,2013-11-11 21:54:00,
2013-11-11 15:59:00,66.2,57.3,25.01,SE,126,0.0,0.0,73,0.00,,---,0.00,VWS V14.01,2013-11-11 21:59:00,
2013-11-11 16:04:00,66.2,57.7,25.01,ESE,122,0.0,0.0,74,0.00,,---,0.00,VWS V14.01,2013-11-11 22:04:00,
2013-11-11 16:09:00,66.2,58.8,25.01,ESE,123,3.6,3.6,77,0.00,,---,0.00,VWS V14.01,2013-11-11 22:09:00,
2013-11-11 16:14:00,66.0,58.6,25.01,East,100,5.4,5.4,77,0.00,,---,0.00,VWS V14.01,2013-11-11 22:14:00,
2013-11-11 16:19:00,66.0,59.0,25.01,ENE,72,5.8,5.8,78,0.00,,---,0.00,VWS V14.01,2013-11-11 22:19:00,
2013-11-11 16:25:00,65.8,59.5,25.01,East,87,5.8,5.8,80,0.00,,---,0.00,VWS V14.01,2013-11-11 22:25:00,
2013-11-11 16:30:00,65.5,59.5,25.01,East,86,3.1,5.4,81,0.00,,---,0.00,VWS V14.01,2013-11-11 22:30:00,
2013-11-11 16:35:00,65.5,59.8,25.01,ESE,105,2.2,4.0,82,0.00,,---,0.00,VWS V14.01,2013-11-11 22:35:00,
2013-11-11 16:40:00,65.3,60.0,25.01,East,87,3.6,3.6,83,0.00,,---,0.00,VWS V14.01,2013-11-11 22:40:00,
2013-11-11 16:45:00,65.3,60.0,25.01,East,89,4.9,4.9,83,0.00,,---,0.00,VWS V14.01,2013-11-11 22:45:00,
2013-11-11 16:50:00,65.1,60.2,25.01,ESE,120,3.6,3.6,84,0.00,,---,0.00,VWS V14.01,2013-11-11 22:50:00,
2013-11-11 16:55:00,65.1,60.5,25.04,NE,40,3.1,4.9,85,0.00,,---,0.00,VWS V14.01,2013-11-11 22:55:00,
2013-11-11 17:00:00,64.9,60.3,25.04,ESE,107,2.2,2.2,85,0.00,,---,0.00,VWS V14.01,2013-11-11 23:00:00,
2013-11-11 17:05:00,64.8,60.8,25.04,ENE,75,5.4,5.4,87,0.00,,---,0.00,VWS V14.01,2013-11-11 23:05:00,
2013-11-11 17:10:00,64.6,61.0,25.04,SE,133,2.2,2.2,88,0.00,,---,0.00,VWS V14.01,2013-11-11 23:10:00,
2013-11-11 17:16:00,64.4,61.1,25.04,East,101,4.0,4.0,89,0.00,,---,0.00,VWS V14.01,2013-11-11 23:16:00,
2013-11-11 17:21:00,64.4,61.4,25.04,ESE,117,3.6,3.6,90,0.00,,---,0.00,VWS V14.01,2013-11-11 23:21:00,
2013-11-11 17:26:00,64.2,61.2,25.04,East,85,0.0,4.0,90,0.00,,---,0.00,VWS V14.01,2013-11-11 23:26:00,
2013-11-11 17:31:00,64.2,61.5,25.04,East,93,4.9,4.9,91,0.00,,---,0.00,VWS V14.01,2013-11-11 23:31:00,
2013-11-11 17:36:00,64.0,61.4,25.04,SE,142,5.4,5.4,91,0.00,,---,0.00,VWS V14.01,2013-11-11 23:36:00,
2013-11-11 17:41:00,63.9,61.5,25.04,ESE,113,5.4,5.8,92,0.00,,---,0.00,VWS V14.01,2013-11-11 23:41:00,
2013-11-11 17:46:00,63.9,61.5,25.04,ESE,115,2.7,2.7,92,0.00,,---,0.00,VWS V14.01,2013-11-11 23:46:00,
2013-11-11 17:51:00,63.7,61.3,25.04,ENE,74,4.0,4.0,92,0.00,,---,0.00,VWS V14.01,2013-11-11 23:51:00,
2013-11-11 17:56:00,63.5,61.4,25.04,NNW,330,3.6,3.6,93,0.00,,---,0.00,VWS V14.01,2013-11-11 23:56:00,
2013-11-11 18:01:00,63.5,61.4,25.04,ESE,111,4.0,4.0,93,0.00,,---,0.00,VWS V14.01,2013-11-12 00:01:00,
2013-11-11 18:07:00,63.5,61.4,25.04,SSE,159,3.1,3.1,93,0.00,,---,0.00,VWS V14.01,2013-11-12 00:07:00,
2013-11-11 18:12:00,63.5,61.4,25.04,NE,44,5.8,5.8,93,0.00,,---,0.00,VWS V14.01,2013-11-12 00:12:00,
2013-11-11 18:17:00,63.3,61.3,25.04,ESE,120,3.6,3.6,93,0.00,,---,0.00,VWS V14.01,2013-11-12 00:17:00,
2013-11-11 18:22:00,63.3,61.6,25.04,East,98,5.4,5.4,94,0.00,,---,0.00,VWS V14.01,2013-11-12 00:22:00,
2013-11-11 18:27:00,63.3,61.6,25.04,SE,134,4.9,4.9,94,0.00,,---,0.00,VWS V14.01,2013-11-12 00:27:00,
2013-11-11 18:32:00,63.1,61.1,25.04,ENE,73,3.6,3.6,93,0.00,,---,0.00,VWS V14.01,2013-11-12 00:32:00,
2013-11-11 18:37:00,63.1,61.1,25.04,SE,135,4.0,4.0,93,0.00,,---,0.00,VWS V14.01,2013-11-12 00:37:00,
2013-11-11 18:42:00,63.3,60.7,25.07,ESE,113,2.7,2.7,91,0.00,,---,0.00,VWS V14.01,2013-11-12 00:42:00,
2013-11-11 18:47:00,63.5,60.2,25.04,SE,141,2.7,2.7,89,0.00,,---,0.00,VWS V14.01,2013-11-12 00:47:00,
2013-11-11 18:53:00,63.9,60.2,25.04,NE,49,0.0,2.7,88,0.00,,---,0.00,VWS V14.01,2013-11-12 00:53:00,
2013-11-11 18:58:00,64.0,57.4,25.04,WSW,248,5.4,5.4,79,0.00,,---,0.00,VWS V14.01,2013-11-12 00:58:00,
2013-11-11 19:03:00,64.6,55.4,25.04,East,93,3.1,3.1,72,0.00,,---,0.00,VWS V14.01,2013-11-12 01:03:00,
2013-11-11 19:08:00,64.9,52.9,25.07,SSE,159,6.3,6.3,65,0.00,,---,0.00,VWS V14.01,2013-11-12 01:08:00,
2013-11-11 19:13:00,65.5,53.0,25.07,SW,230,3.6,3.6,64,0.00,,---,0.00,VWS V14.01,2013-11-12 01:13:00,
2013-11-11 19:18:00,65.5,52.6,25.07,SSE,153,2.2,2.2,63,0.00,,---,0.00,VWS V14.01,2013-11-12 01:18:00,
2013-11-11 19:24:00,65.7,51.4,25.07,East,85,8.7,8.7,60,0.00,,---,0.00,VWS V14.01,2013-11-12 01:24:00,
2013-11-11 19:29:00,65.8,51.6,25.07,SSW,197,4.9,4.9,60,0.00,,---,0.00,VWS V14.01,2013-11-12 01:29:00,
2013-11-11 19:34:00,65.8,52.0,25.07,SSE,160,2.7,2.7,61,0.00,,---,0.00,VWS V14.01,2013-11-12 01:34:00,
2013-11-11 19:39:00,65.7,52.3,25.07,East,97,4.0,4.9,62,0.00,,---,0.00,VWS V14.01,2013-11-12 01:39:00,
2013-11-11 19:44:00,65.5,53.4,25.07,East,79,4.9,4.9,65,0.00,,---,0.00,VWS V14.01,2013-11-12 01:44:00,
2013-11-11 19:49:00,65.1,53.9,25.07,SE,128,4.0,4.0,67,0.00,,---,0.00,VWS V14.01,2013-11-12 01:49:00,
2013-11-11 19:54:00,64.9,53.7,25.07,SE,127,5.4,10.1,67,0.00,,---,0.00,VWS V14.01,2013-11-12 01:54:00,
2013-11-11 19:59:00,64.9,53.7,25.07,East,90,3.1,3.1,67,0.00,,---,0.00,VWS V14.01,2013-11-12 01:59:00,
2013-11-11 20:04:00,64.9,53.3,25.10,East,97,2.7,2.7,66,0.00,,---,0.00,VWS V14.01,2013-11-12 02:04:00,
2013-11-11 20:09:00,64.8,54.0,25.10,NE,42,4.0,4.0,68,0.00,,---,0.00,VWS V14.01,2013-11-12 02:09:00,
2013-11-11 20:14:00,64.6,54.2,25.10,East,86,2.2,4.0,69,0.00,,---,0.00,VWS V14.01,2013-11-12 02:14:00,
2013-11-11 20:19:00,64.6,54.6,25.10,East,84,2.7,2.7,70,0.00,,---,0.00,VWS V14.01,2013-11-12 02:19:00,
2013-11-11 20:24:00,64.6,54.6,25.10,East,84,3.6,3.6,70,0.00,,---,0.00,VWS V14.01,2013-11-12 02:24:00,
2013-11-11 20:29:00,64.4,54.0,25.10,East,90,3.1,3.1,69,0.00,,---,0.00,VWS V14.01,2013-11-12 02:29:00,
2013-11-11 20:34:00,64.4,54.4,25.10,East,90,3.1,3.6,70,0.00,,---,0.00,VWS V14.01,2013-11-12 02:34:00,
2013-11-11 20:39:00,64.4,54.8,25.10,ENE,70,2.2,2.2,71,0.00,,---,0.00,VWS V14.01,2013-11-12 02:39:00,
2013-11-11 20:44:00,64.2,54.6,25.10,SE,139,2.2,4.0,71,0.00,,---,0.00,VWS V14.01,2013-11-12 02:44:00,
2013-11-11 20:49:00,64.4,54.8,25.07,NE,49,5.4,5.4,71,0.00,,---,0.00,VWS V14.01,2013-11-12 02:49:00,
2013-11-11 20:54:00,64.4,54.8,25.07,ESE,109,0.0,0.0,71,0.00,,---,0.00,VWS V14.01,2013-11-12 02:54:00,
2013-11-11 20:59:00,64.4,55.2,25.07,ENE,71,2.7,3.6,72,0.00,,---,0.00,VWS V14.01,2013-11-12 02:59:00,
2013-11-11 21:05:00,64.2,55.8,25.07,ESE,109,4.0,4.0,74,0.00,,---,0.00,VWS V14.01,2013-11-12 03:05:00,
2013-11-11 21:10:00,64.2,56.1,25.07,ESE,115,4.0,4.0,75,0.00,,---,0.00,VWS V14.01,2013-11-12 03:10:00,
2013-11-11 21:15:00,64.2,56.1,25.07,East,98,6.3,6.3,75,0.00,,---,0.00,VWS V14.01,2013-11-12 03:15:00,
2013-11-11 21:20:00,64.2,56.5,25.10,SE,131,4.0,4.0,76,0.00,,---,0.00,VWS V14.01,2013-11-12 03:20:00,
2013-11-11 21:25:00,64.0,57.0,25.10,SSE,166,2.7,2.7,78,0.00,,---,0.00,VWS V14.01,2013-11-12 03:25:00,
2013-11-11 21:30:00,63.9,57.2,25.10,SSE,156,9.6,9.6,79,0.00,,---,0.00,VWS V14.01,2013-11-12 03:30:00,
2013-11-11 21:35:00,64.0,57.4,25.10,East,92,3.1,3.1,79,0.00,,---,0.00,VWS V14.01,2013-11-12 03:35:00,
2013-11-11 21:40:00,64.2,56.1,25.10,SE,124,5.4,5.4,75,0.00,,---,0.00,VWS V14.01,2013-11-12 03:40:00,
2013-11-11 21:45:00,64.4,55.2,25.10,SE,129,3.6,3.6,72,0.00,,---,0.00,VWS V14.01,2013-11-12 03:45:00,
2013-11-11 21:50:00,64.6,54.6,25.10,SSE,163,5.8,7.6,70,0.00,,---,0.00,VWS V14.01,2013-11-12 03:50:00,
2013-11-11 21:56:00,64.8,54.0,25.07,SSE,156,3.6,12.8,68,0.00,,---,0.00,VWS V14.01,2013-11-12 03:56:00,
2013-11-11 22:01:00,64.8,53.6,25.07,SSW,211,3.1,3.1,67,0.00,,---,0.00,VWS V14.01,2013-11-12 04:01:00,
2013-11-11 22:06:00,64.8,53.6,25.07,SE,140,6.3,6.3,67,0.00,,---,0.00,VWS V14.01,2013-11-12 04:06:00,
2013-11-11 22:11:00,64.8,53.2,25.07,East,99,7.6,7.6,66,0.00,,---,0.00,VWS V14.01,2013-11-12 04:11:00,
2013-11-11 22:16:00,64.8,53.2,25.07,East,83,6.3,6.3,66,0.00,,---,0.00,VWS V14.01,2013-11-12 04:16:00,
2013-11-11 22:21:00,64.8,53.2,25.07,SSE,161,3.1,5.4,66,0.00,,---,0.00,VWS V14.01,2013-11-12 04:21:00,
2013-11-11 22:26:00,64.8,54.0,25.07,SE,129,8.1,8.1,68,0.00,,---,0.00,VWS V14.01,2013-11-12 04:26:00,
2013-11-11 22:32:00,64.4,53.6,25.07,SSE,158,4.0,4.0,68,0.00,,---,0.00,VWS V14.01,2013-11-12 04:32:00,
2013-11-11 22:37:00,64.2,53.5,25.07,SSE,158,3.1,3.1,68,0.00,,---,0.00,VWS V14.01,2013-11-12 04:37:00,
2013-11-11 22:42:00,64.2,52.6,25.07,SE,133,8.3,8.3,66,0.00,,---,0.00,VWS V14.01,2013-11-12 04:42:00,
2013-11-11 22:47:00,64.4,52.0,25.07,South,180,2.7,3.1,64,0.00,,---,0.00,VWS V14.01,2013-11-12 04:47:00,
2013-11-11 22:52:00,64.4,52.4,25.07,East,96,0.0,0.0,65,0.00,,---,0.00,VWS V14.01,2013-11-12 04:52:00,
2013-11-11 22:57:00,64.2,53.5,25.07,ESE,121,2.2,2.2,68,0.00,,---,0.00,VWS V14.01,2013-11-12 04:57:00,
2013-11-11 23:01:00,64.2,53.8,25.07,ESE,114,2.2,4.0,69,0.00,,---,0.00,VWS V14.01,2013-11-12 05:01:00,
2013-11-11 23:02:00,64.0,54.1,25.07,ESE,110,3.6,3.6,70,0.00,,---,0.00,VWS V14.01,2013-11-12 05:02:00,
2013-11-11 23:03:00,63.9,54.3,25.07,ESE,121,0.0,3.6,71,0.00,,---,0.00,VWS V14.01,2013-11-12 05:03:00,
2013-11-11 23:08:00,63.5,55.8,25.07,NNE,33,3.1,3.1,76,0.00,,---,0.00,VWS V14.01,2013-11-12 05:08:00,
2013-11-11 23:13:00,63.1,56.5,25.07,NNE,21,5.8,5.8,79,0.00,,---,0.00,VWS V14.01,2013-11-12 05:13:00,
2013-11-11 23:18:00,63.1,57.2,25.07,SE,127,3.1,3.1,81,0.00,,---,0.00,VWS V14.01,2013-11-12 05:18:00,
2013-11-11 23:23:00,63.0,57.4,25.07,East,81,3.6,3.6,82,0.00,,---,0.00,VWS V14.01,2013-11-12 05:23:00,
2013-11-11 23:28:00,63.0,57.0,25.07,East,85,5.8,5.8,81,0.00,,---,0.00,VWS V14.01,2013-11-12 05:28:00,
2013-11-11 23:33:00,63.0,56.7,25.07,ESE,111,5.8,5.8,80,0.00,,---,0.00,VWS V14.01,2013-11-12 05:33:00,
2013-11-11 23:39:00,63.1,56.9,25.04,NNE,13,5.8,5.8,80,0.00,,---,0.00,VWS V14.01,2013-11-12 05:39:00,
2013-11-11 23:44:00,63.1,56.5,25.04,NE,38,5.4,5.8,79,0.00,,---,0.00,VWS V14.01,2013-11-12 05:44:00,
2013-11-11 23:49:00,63.1,56.2,25.04,ESE,104,4.0,4.0,78,0.00,,---,0.00,VWS V14.01,2013-11-12 05:49:00,
2013-11-11 23:54:00,63.1,56.2,25.04,ESE,113,4.0,4.0,78,0.00,,---,0.00,VWS V14.01,2013-11-12 05:54:00,
2013-11-11 23:59:00,63.1,55.8,25.04,ESE,118,5.8,5.8,77,0.00,,---,0.00,VWS V14.01,2013-11-12 05:59:00,